Location: Bullenkuhlen
(53.7689°N, 9.7495°E)
Time: 23:33:32
(UTC+00:00)

Cosmos 2360 - Pass Details

Date: 09 April 2020
Orbit: 847 x 855 km, 70.8° (Epoch: 03 June)

Event Time Altitude Azimuth Distance (km) Brightness Sun altitude
Rises 20:18:22 0° 327° (NNW) 3,423 8.9 -17.1°
Reaches altitude 10° 20:20:51 10° 331° (NNW) 2,485 7.8 -17.4°
Maximum altitude 20:26:31 62° 52° (NE) 955 4.4 -18.0°
Enters shadow 20:29:11 31° 122° (ESE) 1,443 4.9 -18.3°
